一网星座-0179星 (ONEWEB-0179 )

导读

ONEWEB-0179是英国OneWeb星座的低轨通信卫星,于2021年4月25日发射入轨,运行在距地约1200公里的极地轨道,单星质量约175-200kg,采用Ku波段提供通信服务,通过“渐进俯仰”技术降低与同步轨道卫星的干扰。它属于OneWeb全球宽带星座组成部分,主要为电信运营商提供骨干网络支撑,服务全球偏远地区互联网接入,兼具商业与潜在军事应用价值。

基本信息
目录编号:
48212
目录名称:
ONEWEB-0179
国际标识:
2021-031C
轨道中心:
EARTH
卫星名称:
一网星座-0179星
卫星全名:
一网星座-0179星 (ONEWEB-0179 )
卫星状态:
在轨 (已飞行1969 天)
发射日期:
2021-04-25 UTC
国别 :
英国 (GB)
星等 :
--
该卫星已列入 空间交会检测服务 Space Conjunction Data Service (SCDS) ,当前飞行风险评估等级: 无高风险
轨道信息
数据来源 国际轨道数据 AOE轨道数据
星历时间 2026-09-14T18:44:59+0800
1天前
查看轨道信息
2026-09-13T15:00:00+0800
2天前
查看轨道信息
半长轴 7078.057km 7078.123km
偏心率 0.0348517 0.0348771
轨道倾角 87.894° 87.895°
近地点辐角 319.625° 323.629°
升交点赤经 264.982° 265.276°
平近点角 37.955° 89.445°
近地点 453.237km 453.121km
远地点 946.603km 946.851km
周期 98.771分钟 98.773分钟
每日圈数 14.579134 14.578929
详细信息
平衡模式:
三轴稳定
覆盖范围:
全球
运营商:
一网卫星公司
运营商所在国:
英国
制造商(研发单位):
一网卫星公司
制造商所在国:
英国
使用方式:
暂无
卫星简介
OneWeb卫星网络由648颗重约125公斤的微型卫星组成,运行在1200公里的轨道上。 每颗卫星都能够提供至少每秒8千兆位的吞吐量,以使用其高吞吐量的Ku频段有效载荷为家庭和移动平台提供互联网接入。该卫星仍在工作。
2D轨道图
3D轨道图
轨道高度分析图
轨道倾角分析图
轨道综合分析图
查看轨道综合分析图
与全量物体交会距离演化趋势 订阅飞行安全评估服务
与全量物体交会风险概率演化趋势 订阅飞行安全评估服务